Time,TemperatureF,DewpointF,PressureIn,WindDirection,WindDirectionDegrees,WindSpeedMPH,WindSpeedGustMPH,Humidity,HourlyPrecipIn,Conditions,Clouds,dailyrainin,SoftwareType,DateUTC
2013-09-27 00:11:00,37.0,34.0,30.00,NW,311,0.0,0.0,88,0.00,,,0.00,,2013-09-27 06:11:00,
2013-09-27 00:22:00,37.0,34.0,30.00,NW,311,0.0,0.0,89,0.00,,,0.00,,2013-09-27 06:22:00,
2013-09-27 00:42:00,37.0,34.0,30.00,NW,311,0.0,0.0,90,0.00,,,0.00,,2013-09-27 06:42:00,
2013-09-27 00:52:00,36.0,33.0,29.99,NW,311,0.0,0.0,88,0.00,,,0.00,,2013-09-27 06:52:00,
2013-09-27 01:21:00,36.0,33.0,29.99,NW,311,0.0,1.0,90,0.00,,,0.00,,2013-09-27 07:21:00,
2013-09-27 01:43:00,36.0,33.0,29.99,NW,311,0.0,0.0,89,0.00,,,0.00,,2013-09-27 07:43:00,
2013-09-27 01:53:00,35.0,32.0,29.98,NW,311,0.0,0.0,89,0.00,,,0.00,,2013-09-27 07:53:00,
2013-09-27 02:22:00,34.0,31.0,29.99,NW,311,0.0,0.0,89,0.00,,,0.00,,2013-09-27 08:22:00,
2013-09-27 02:42:00,33.0,30.0,29.98,NW,311,0.0,0.0,89,0.00,,,0.00,,2013-09-27 08:42:00,
2013-09-27 02:52:00,32.0,29.0,29.99,NW,311,0.0,0.0,90,0.00,,,0.00,,2013-09-27 08:52:00,
2013-09-27 03:02:00,32.0,29.0,29.99,NW,311,0.0,0.0,90,0.00,,,0.00,,2013-09-27 09:02:00,
2013-09-27 03:11:00,32.0,29.0,29.99,NW,311,0.0,0.0,90,0.00,,,0.00,,2013-09-27 09:11:00,
2013-09-27 03:22:00,32.0,30.0,30.00,NW,311,0.0,0.0,92,0.00,,,0.00,,2013-09-27 09:22:00,
2013-09-27 03:53:00,33.0,31.0,30.01,NW,311,0.0,0.0,94,0.00,,,0.00,,2013-09-27 09:53:00,
2013-09-27 04:12:00,34.0,32.0,30.01,NW,311,0.0,0.0,94,0.00,,,0.00,,2013-09-27 10:12:00,
2013-09-27 04:23:00,34.0,32.0,30.01,NW,311,0.0,0.0,94,0.00,,,0.00,,2013-09-27 10:23:00,
2013-09-27 04:52:00,34.0,32.0,30.00,NW,311,0.0,0.0,93,0.00,,,0.00,,2013-09-27 10:52:00,
2013-09-27 05:11:00,34.0,32.0,30.00,NW,311,0.0,0.0,93,0.00,,,0.00,,2013-09-27 11:11:00,
2013-09-27 05:22:00,34.0,32.0,30.00,NW,311,0.0,0.0,92,0.00,,,0.00,,2013-09-27 11:22:00,
2013-09-27 05:52:00,33.0,31.0,30.01,NW,311,0.0,0.0,92,0.00,,,0.00,,2013-09-27 11:52:00,
2013-09-27 06:11:00,33.0,31.0,30.01,NW,311,0.0,0.0,93,0.00,,,0.00,,2013-09-27 12:11:00,
2013-09-27 06:21:00,33.0,31.0,30.01,NW,311,0.0,0.0,93,0.00,,,0.00,,2013-09-27 12:21:00,
2013-09-27 06:52:00,33.0,31.0,30.02,NW,311,0.0,0.0,93,0.00,,,0.00,,2013-09-27 12:52:00,
2013-09-27 07:11:00,33.0,31.0,30.02,NW,311,0.0,0.0,93,0.00,,,0.00,,2013-09-27 13:11:00,
2013-09-27 07:21:00,32.0,30.0,30.02,NW,311,0.0,0.0,93,0.00,,,0.00,,2013-09-27 13:21:00,
2013-09-27 07:52:00,32.0,30.0,30.01,NW,311,0.0,0.0,92,0.00,,,0.00,,2013-09-27 13:52:00,
2013-09-27 08:11:00,31.0,29.0,30.01,NW,311,0.0,0.0,93,0.00,,,0.00,,2013-09-27 14:11:00,
2013-09-27 08:21:00,31.0,29.0,30.01,NW,311,0.0,0.0,93,0.00,,,0.00,,2013-09-27 14:21:00,
2013-09-27 08:52:00,31.0,29.0,30.00,NW,311,0.0,0.0,94,0.00,,,0.00,,2013-09-27 14:52:00,
2013-09-27 09:21:00,34.0,33.0,30.02,NW,311,0.0,0.0,95,0.00,,,0.00,,2013-09-27 15:21:00,
2013-09-27 09:54:00,35.0,33.0,30.02,NW,311,0.0,0.0,93,0.00,,,0.00,,2013-09-27 15:54:00,
2013-09-27 10:13:00,36.0,34.0,30.01,NW,311,0.0,1.0,92,0.00,,,0.00,,2013-09-27 16:13:00,
2013-09-27 10:24:00,37.0,35.0,30.01,NW,311,0.0,1.0,91,0.00,,,0.00,,2013-09-27 16:24:00,
2013-09-27 10:53:00,38.0,35.0,30.01,NW,311,0.0,0.0,89,0.00,,,0.00,,2013-09-27 16:53:00,
2013-09-27 11:12:00,39.0,35.0,30.01,NW,311,0.0,0.0,84,0.00,,,0.00,,2013-09-27 17:12:00,
2013-09-27 11:23:00,40.0,35.0,30.01,NW,311,0.0,0.0,82,0.00,,,0.00,,2013-09-27 17:23:00,
2013-09-27 11:52:00,42.0,36.0,29.99,NW,311,0.0,0.0,79,0.00,,,0.00,,2013-09-27 17:52:00,
2013-09-27 12:13:00,43.0,36.0,29.98,NW,311,0.0,1.0,77,0.00,,,0.00,,2013-09-27 18:13:00,
2013-09-27 12:21:00,44.0,37.0,29.97,NW,311,0.0,2.0,76,0.00,,,0.00,,2013-09-27 18:21:00,
2013-09-27 12:52:00,47.0,39.0,29.95,ESE,120,1.0,3.0,73,0.00,,,0.00,,2013-09-27 18:52:00,
2013-09-27 13:12:00,48.0,39.0,29.95,SE,126,1.0,3.0,71,0.00,,,0.00,,2013-09-27 19:12:00,
2013-09-27 13:22:00,49.0,39.0,29.96,SE,132,2.0,5.0,67,0.00,,,0.00,,2013-09-27 19:22:00,
2013-09-27 13:53:00,50.0,39.0,29.93,SE,130,1.0,3.0,67,0.00,,,0.00,,2013-09-27 19:53:00,
2013-09-27 14:12:00,51.0,39.0,29.95,SE,130,1.0,3.0,64,0.00,,,0.00,,2013-09-27 20:12:00,
2013-09-27 14:22:00,51.0,39.0,29.94,ESE,123,1.0,4.0,64,0.00,,,0.00,,2013-09-27 20:22:00,
2013-09-27 14:42:00,52.0,41.0,29.92,SE,130,0.0,7.0,65,0.00,,,0.00,,2013-09-27 20:42:00,
2013-09-27 14:52:00,52.0,39.0,29.93,SE,130,0.0,3.0,61,0.00,,,0.00,,2013-09-27 20:52:00,
2013-09-27 15:11:00,52.0,39.0,29.92,SE,130,1.0,3.0,61,0.00,,,0.00,,2013-09-27 21:11:00,
2013-09-27 15:21:00,52.0,39.0,29.92,SE,130,0.0,3.0,61,0.00,,,0.00,,2013-09-27 21:21:00,
2013-09-27 15:44:00,53.0,36.0,29.91,SSE,165,1.0,4.0,52,0.00,,,0.00,,2013-09-27 21:44:00,
2013-09-27 15:54:00,53.0,34.0,29.91,SSW,208,2.0,6.0,49,0.00,,,0.00,,2013-09-27 21:54:00,
2013-09-27 16:24:00,53.0,34.0,29.91,SSW,198,3.0,6.0,48,0.00,,,0.00,,2013-09-27 22:24:00,
2013-09-27 16:53:00,52.0,35.0,29.91,South,188,0.0,6.0,52,0.00,,,0.00,,2013-09-27 22:53:00,
2013-09-27 17:22:00,51.0,35.0,29.92,South,191,0.0,4.0,54,0.00,,,0.00,,2013-09-27 23:22:00,
2013-09-27 17:53:00,50.0,36.0,29.91,SE,134,0.0,4.0,58,0.00,,,0.00,,2013-09-27 23:53:00,
2013-09-27 18:12:00,49.0,35.0,29.92,SSW,200,1.0,6.0,59,0.00,,,0.00,,2013-09-28 00:12:00,
2013-09-27 18:22:00,49.0,36.0,29.92,SSW,204,1.0,3.0,61,0.00,,,0.00,,2013-09-28 00:22:00,
2013-09-27 18:42:00,48.0,36.0,29.93,SSW,203,0.0,0.0,63,0.00,,,0.00,,2013-09-28 00:42:00,
2013-09-27 18:52:00,48.0,36.0,29.92,SSW,203,0.0,2.0,64,0.00,,,0.00,,2013-09-28 00:52:00,
2013-09-27 19:21:00,48.0,37.0,29.92,SSE,163,0.0,1.0,66,0.00,,,0.00,,2013-09-28 01:21:00,
2013-09-27 19:42:00,48.0,37.0,29.93,SSE,163,0.0,1.0,66,0.00,,,0.00,,2013-09-28 01:42:00,
2013-09-27 19:52:00,47.0,36.0,29.93,SSE,163,0.0,2.0,66,0.00,,,0.00,,2013-09-28 01:52:00,
2013-09-27 20:12:00,47.0,36.0,29.93,SSE,157,0.0,1.0,66,0.00,,,0.00,,2013-09-28 02:12:00,
2013-09-27 20:22:00,47.0,36.0,29.93,SSE,157,0.0,1.0,66,0.00,,,0.00,,2013-09-28 02:22:00,
2013-09-27 20:53:00,47.0,35.0,29.92,SSW,193,0.0,3.0,64,0.00,,,0.00,,2013-09-28 02:53:00,
2013-09-27 21:12:00,47.0,35.0,29.92,SSW,193,1.0,2.0,64,0.00,,,0.00,,2013-09-28 03:12:00,
2013-09-27 21:22:00,47.0,35.0,29.92,South,178,0.0,2.0,64,0.00,,,0.00,,2013-09-28 03:22:00,
2013-09-27 21:55:00,47.0,35.0,29.91,South,178,0.0,1.0,64,0.00,,,0.00,,2013-09-28 03:55:00,
2013-09-27 22:24:00,47.0,35.0,29.92,SSW,192,0.0,2.0,63,0.00,,,0.00,,2013-09-28 04:24:00,
2013-09-27 22:43:00,47.0,36.0,29.93,SSW,192,0.0,1.0,65,0.00,,,0.00,,2013-09-28 04:43:00,
2013-09-27 22:54:00,47.0,35.0,29.93,SSW,192,0.0,2.0,64,0.00,,,0.00,,2013-09-28 04:54:00,
2013-09-27 23:12:00,47.0,35.0,29.93,SSW,192,0.0,1.0,64,0.00,,,0.00,,2013-09-28 05:12:00,
2013-09-27 23:22:00,47.0,35.0,29.93,SSW,193,0.0,3.0,64,0.00,,,0.00,,2013-09-28 05:22:00,
2013-09-27 23:53:00,47.0,36.0,29.91,SSW,193,0.0,2.0,65,0.00,,,0.00,,2013-09-28 05:53:00,